RH
40 26 25 28 31 33 33 34 35 34 35 36 36 36 36 37 39 42 44 45 45 46 47 46 45 45 45 45 45 43 41 38 37 35 35 34 32 32 33 35 37 38 40 43 47 49 48 49 50 52 52 51 50 48 46 43 40 38 35 34 32 31 29 28 27 26 26 26 25 23 21 19 17 15 13 11 10 10 9 10 10 11 11 10 8
30 24 28 30 31 33 33 35 35 36 38 38 38 39 39 42 45 47 49 49 48 46 47 47 48 49 49 47 45 43 41 39 38 37 36 36 36 36 37 38 40 41 43 45 48 51 54 56 56 58 58 57 55 53 50 46 42 39 36 34 31 29 28 27 24 23 23 23 22 22 20 19 17 15 13 12 10 9 9 9 9 10 10 10 9
25 26 30 31 32 33 35 36 38 40 41 40 40 40 42 46 48 51 52 51 49 47 47 49 51 51 48 47 46 44 43 41 39 38 38 38 39 40 41 42 43 45 46 48 51 55 59 62 62 61 60 59 56 54 52 48 43 39 36 33 30 28 26 25 23 21 21 21 20 20 19 18 16 14 13 12 10 8 8 9 9 9 9 9 9
25 29 32 31 33 34 36 38 41 43 42 41 42 44 47 49 50 50 48 48 49 50 51 51 51 50 48 47 47 47 47 45 42 40 39 39 40 42 43 45 46 48 50 52 56 59 62 64 64 62 59 57 55 52 50 47 43 38 35 31 28 26 24 22 21 20 19 18 18 18 18 17 17 14 13 11 10 8 7 8 8 8 8 8 8
29 32 31 32 34 35 37 39 42 42 42 42 44 47 48 49 49 49 50 52 54 56 56 53 52 52 51 51 50 51 51 50 48 45 42 39 38 39 41 44 48 51 54 57 60 62 63 63 62 60 57 53 50 48 47 44 41 36 32 29 26 23 21 19 18 18 17 17 16 16 16 16 16 14 13 11 9 8 8 7 7 8 7 7 8
34 32 31 33 34 36 39 40 41 41 43 46 48 49 50 51 53 55 57 57 57 57 56 55 55 54 55 55 55 55 56 57 55 51 46 41 38 38 40 44 48 52 57 62 65 66 65 63 59 55 51 48 47 46 44 41 37 32 28 25 22 20 18 17 16 15 15 15 15 14 14 15 15 14 13 11 9 8 7 7 7 7 7 6 7
38 35 35 35 36 38 40 40 41 43 47 50 51 53 54 57 59 60 60 58 56 55 55 55 55 55 55 55 55 55 55 55 52 48 43 39 38 39 43 47 52 57 62 67 69 69 65 60 55 51 48 46 44 41 38 34 29 25 22 20 19 17 15 14 14 13 13 13 13 13 13 13 13 13 12 11 10 8 7 6 7 7 7 6 6
40 39 39 39 39 40 41 43 46 49 52 54 56 58 59 60 60 60 59 58 58 57 56 55 54 52 51 50 50 49 48 46 43 39 36 36 38 41 45 51 58 64 70 73 73 70 64 58 51 47 43 40 35 31 27 24 21 18 17 15 15 14 13 12 12 11 11 11 11 11 11 11 11 11 11 10 9 8 7 6 6 6 6 6 5
41 41 42 42 42 43 45 48 52 55 57 59 61 61 62 62 61 60 59 58 58 57 57 55 53 52 50 47 45 43 40 38 35 34 35 37 40 45 49 54 59 65 68 70 69 66 60 54 46 40 34 28 24 20 17 15 14 13 12 12 12 11 11 10 10 10 9 9 9 10 10 10 10 10 10 10 9 8 7 6 5 6 6 6 5
41 41 42 42 43 46 49 54 58 61 63 64 64 63 63 62 61 60 59 57 56 56 56 56 55 53 50 46 41 38 36 34 34 35 38 42 46 51 55 57 58 58 58 58 58 55 50 43 36 29 22 17 14 12 11 11 10 10 10 9 9 9 9 9 9 8 8 8 8 8 9 9 9 9 9 9 8 8 8 6 5 5 6 5 5
39 40 41 43 46 51 55 59 62 64 66 66 64 63 63 62 61 59 59 59 59 57 57 55 51 46 42 39 36 36 35 35 37 40 44 49 53 56 57 55 53 51 50 51 50 46 38 30 24 18 14 11 10 9 8 8 8 8 8 8 8 8 8 7 7 7 7 7 7 7 8 8 8 9 8 8 8 7 7 7 6 5 5 5 5
39 41 44 48 52 55 58 61 63 64 64 63 62 62 62 61 60 59 60 62 63 61 57 50 44 38 36 35 36 36 37 40 43 48 53 56 58 59 58 55 52 49 48 47 43 35 25 18 14 11 9 8 8 8 7 7 7 7 7 7 7 7 7 7 6 7 7 7 7 7 7 7 8 8 8 8 7 7 6 6 6 5 5 5 5
43 47 50 53 56 58 61 63 64 63 61 61 62 63 63 63 63 64 65 66 64 58 50 42 39 38 36 36 36 37 41 45 50 54 58 60 61 60 59 56 52 47 41 35 28 20 13 11 9 8 8 8 7 7 7 7 7 7 7 7 7 7 6 6 6 6 7 7 7 7 7 7 7 7 7 7 7 6 6 6 6 5 4 5 5
51 54 56 57 59 61 63 63 61 60 60 62 63 64 65 66 66 67 67 66 59 51 44 40 39 38 37 37 38 42 45 49 53 56 59 60 59 58 56 51 44 34 25 18 14 11 9 9 8 8 7 7 7 7 6 6 6 6 6 6 7 7 6 6 6 6 7 7 7 6 6 7 7 7 6 6 6 6 6 5 5 5 5 4 5
59 61 61 61 62 63 62 60 59 60 61 63 65 67 67 66 66 64 61 54 47 42 41 41 40 39 39 41 45 48 50 52 55 56 56 56 53 50 43 35 25 17 12 10 9 8 8 8 7 7 7 7 7 7 6 6 6 6 6 6 6 6 7 6 6 7 6 6 7 6 6 7 6 6 6 6 6 5 5 5 5 5 5 4 4
65 66 64 63 63 62 61 61 61 63 65 67 68 67 66 64 60 54 46 40 38 38 38 37 39 42 46 52 56 57 56 55 55 53 50 45 37 29 22 16 12 10 9 9 8 8 8 8 8 8 8 7 7 7 6 6 5 6 5 5 6 6 6 6 6 6 6 6 6 6 6 6 6 6 6 6 5 5 5 5 5 5 5 5 4
66 64 61 61 61 61 62 63 65 67 70 70 68 65 61 55 47 41 37 36 37 36 36 38 42 48 55 62 66 65 61 57 54 49 42 32 22 15 10 9 9 9 9 8 8 8 8 7 7 7 7 7 6 6 6 5 5 5 5 4 5 5 5 6 6 6 6 6 6 6 6 6 6 6 5 5 5 5 5 5 5 5 5 5 4
59 57 57 60 61 63 65 67 69 71 70 68 63 57 49 41 36 37 37 38 37 38 41 46 51 55 59 62 62 60 56 51 45 37 29 21 15 11 10 9 9 9 10 10 10 9 8 7 7 6 6 5 5 5 4 4 4 4 4 4 4 4 4 4 5 5 5 5 5 6 6 6 6 5 5 5 5 5 5 4 5 5 5 5 4
56 59 62 66 69 71 72 73 74 72 69 63 55 46 40 38 39 40 40 40 42 46 52 55 56 56 55 53 51 48 42 35 28 21 16 13 11 10 10 10 11 12 12 11 10 9 8 7 5 5 4 4 4 3 3 3 4 3 3 3 3 4 4 4 4 4 4 5 5 5 5 5 6 5 5 5 5 5 5 5 5 5 5 5 4
66 70 73 76 78 77 76 74 72 66 59 52 45 41 40 41 41 41 43 47 52 55 57 57 56 53 50 46 40 34 26 19 14 12 11 10 10 10 11 11 11 11 10 9 7 6 5 5 4 4 3 3 3 3 3 3 3 3 3 3 3 4 4 4 4 4 4 4 4 5 5 5 5 5 5 5 5 5 5 5 5 5 5 5 4
75 78 80 81 79 74 71 67 60 52 47 43 41 41 41 42 44 48 52 55 56 55 53 52 51 48 43 35 27 20 15 12 10 10 9 9 10 11 11 10 9 8 7 6 5 4 4 4 4 3 3 3 3 3 3 3 3 3 3 3 4 4 4 4 3 4 4 4 4 4 4 5 5 5 5 5 5 5 5 5 5 5 5 5 4
79 80 80 76 70 63 58 52 46 42 41 41 42 42 44 48 52 55 56 54 52 49 47 46 42 37 29 21 15 13 11 10 10 9 10 10 10 10 9 7 6 6 5 5 4 4 4 4 4 4 3 3 3 3 3 3 3 3 3 3 4 4 3 3 3 4 3 4 4 4 4 4 4 5 5 5 5 5 5 5 5 5 5 4 5
79 75 69 61 53 47 44 41 41 42 43 44 46 49 52 54 53 51 50 48 46 44 40 35 28 21 16 13 11 11 10 10 10 10 10 10 9 7 6 6 5 5 5 5 5 4 4 4 4 4 4 3 3 3 3 3 3 3 3 3 3 3 3 4 4 4 3 4 4 4 4 4 4 4 4 4 5 5 5 5 5 5 5 5 5
65 57 50 44 41 41 42 43 45 47 49 50 51 51 50 48 46 45 43 41 37 31 25 20 15 13 12 11 11 10 10 10 10 10 10 8 7 6 5 5 5 5 5 5 5 5 4 4 4 3 3 3 3 3 2 3 2 2 3 3 3 3 3 3 4 4 4 4 4 4 4 4 4 4 4 4 5 5 5 5 5 5 5 5 5
48 44 42 43 44 46 48 49 50 51 50 48 47 45 44 44 42 38 34 28 23 18 14 12 12 11 11 11 10 10 11 11 10 9 8 6 5 5 5 5 6 6 6 5 5 4 4 4 3 3 3 2 2 2 2 2 2 2 2 2 3 3 3 3 4 4 4 4 4 4 4 4 4 4 4 4 5 5 5 5 5 5 5 5 5
46 46 47 48 49 50 49 48 47 46 44 43 42 41 40 36 31 25 20 16 13 12 12 12 11 11 11 10 11 11 10 9 8 7 6 5 5 5 5 6 6 5 5 5 4 4 3 3 3 3 2 2 2 2 2 2 2 2 2 2 2 2 3 3 3 4 4 4 4 4 4 4 4 4 4 4 5 5 5 5 5 5 5 5 5
50 49 48 46 44 43 42 41 41 41 42 41 37 32 26 21 17 14 13 12 12 12 12 11 11 11 11 11 10 10 8 7 6 5 5 5 5 5 5 5 6 5 4 4 3 3 3 3 2 2 2 2 2 2 2 2 2 2 2 2 2 2 3 3 3 4 4 4 4 4 4 4 4 4 4 4 5 5 5 5 5 5 5 5 5
46 43 40 39 38 38 39 40 41 39 36 30 24 18 15 13 12 12 12 12 12 12 11 11 11 11 11 10 8 7 6 6 6 6 5 6 5 5 5 5 5 4 4 3 3 3 3 2 2 2 2 2 2 2 2 2 2 2 2 2 2 2 3 3 3 3 4 4 4 4 4 4 4 4 4 5 5 5 5 5 5 5 5 5 5
39 37 37 39 40 41 40 37 32 26 20 16 14 13 12 13 13 12 12 12 11 11 12 11 11 10 9 7 6 6 5 5 6 6 6 6 6 5 5 4 4 4 3 3 3 3 3 2 3 2 2 2 2 2 2 2 2 2 2 2 2 2 2 2 3 3 4 4 4 4 4 4 4 5 4 5 5 5 5 5 5 5 5 5 5
38 39 42 43 41 37 30 23 19 15 13 12 12 13 13 13 12 12 11 11 11 12 11 10 9 7 6 6 6 5 6 6 6 6 6 6 5 5 4 4 3 3 3 3 3 3 3 2 3 2 2 2 2 2 2 2 2 2 2 2 2 2 3 3 3 3 3 4 4 4 4 4 5 5 5 5 5 5 5 5 5 5 5 5 5
42 42 40 35 28 22 16 14 13 12 13 13 12 13 12 11 11 11 11 11 10 9 8 7 6 6 6 6 5 6 6 6 6 6 6 5 5 4 3 3 3 3 3 3 3 3 3 3 3 3 2 2 2 2 2 2 3 3 2 3 3 3 3 3 3 3 3 4 4 4 4 5 5 5 5 5 4 5 5 5 5 5 5 5 5
37 32 26 20 15 14 13 13 13 13 13 13 12 11 11 11 12 11 10 9 8 7 6 6 6 6 6 6 6 6 6 6 6 5 5 4 4 3 3 3 3 3 3 3 3 3 3 3 3 3 2 2 2 2 2 3 3 3 3 3 3 3 3 2 3 3 3 4 4 4 5 5 5 5 5 5 5 5 5 5 6 5 5 5 5
22 17 14 13 13 13 13 13 13 13 12 11 11 11 11 11 10 8 8 7 6 6 6 6 6 6 6 6 6 7 6 6 5 4 4 4 3 3 3 3 3 3 3 3 3 3 3 3 3 3 3 2 2 3 3 3 3 3 3 3 3 3 3 3 3 3 3 4 4 4 5 5 5 5 5 5 5 5 5 6 6 5 5 5 6
13 13 12 13 13 13 14 13 12 11 11 11 11 10 9 8 6 6 6 6 6 6 6 6 7 7 7 7 6 6 5 5 4 4 4 3 3 3 3 3 3 3 3 3 3 3 3 3 3 3 3 3 3 3 3 3 3 3 3 3 3 3 3 3 3 3 3 4 4 4 5 5 5 5 5 5 5 5 6 6 6 5 5 6 6
13 13 13 14 14 13 12 11 11 11 11 10 9 7 7 6 6 6 6 6 6 6 6 7 7 6 6 5 5 5 4 4 4 4 3 3 3 3 3 3 3 3 3 3 3 3 3 3 3 3 3 3 3 3 3 3 3 3 3 3 3 3 3 3 3 3 3 4 4 4 5 5 5 5 5 5 5 6 6 6 6 6 6 6 7
14 14 14 13 12 11 11 10 10 10 8 7 7 6 6 6 6 6 6 7 7 7 6 6 5 5 5 4 4 4 3 4 4 3 3 3 3 3 3 3 3 3 3 3 3 3 3 3 3 3 3 3 3 3 3 3 3 3 3 3 3 3 3 3 3 3 3 4 4 5 5 5 6 5 5 5 6 6 6 6 6 6 6 7 7
14 13 12 11 11 11 10 9 8 7 7 6 6 6 6 6 7 7 7 7 6 5 5 4 4 4 4 3 4 3 3 4 3 3 4 3 3 3 3 3 3 3 3 3 3 3 3 3 3 3 3 3 3 3 3 3 3 3 3 3 3 3 3 3 3 3 3 4 4 5 5 6 6 6 6 6 6 7 7 6 6 6 7 7 8
12 12 12 12 11 10 9 7 6 6 6 6 6 6 6 6 6 6 5 5 4 4 4 4 4 4 3 3 4 3 4 4 3 4 4 3 4 3 3 3 3 3 3 3 3 3 3 3 3 3 3 3 3 3 3 3 3 3 3 3 3 3 3 3 3 3 4 4 5 5 6 6 6 6 6 6 7 7 7 6 6 7 7 8 8
13 13 12 10 9 8 7 7 6 6 6 6 6 6 6 5 5 4 4 4 4 4 4 4 4 4 3 3 3 3 3 3 3 4 4 4 4 3 3 4 3 3 4 3 3 3 3 3 3 3 3 3 3 3 3 3 3 3 3 3 3 3 3 3 3 4 4 4 5 6 6 6 6 6 6 7 7 7 7 6 7 7 8 8 9
13 11 10 9 8 7 7 6 6 6 6 6 6 5 5 4 4 4 4 4 4 4 4 4 4 3 3 3 3 3 3 3 3 4 4 4 4 3 4 4 3 3 4 3 3 4 3 3 3 3 3 3 3 3 3 3 3 3 3 3 3 3 3 3 4 4 4 5 5 6 6 6 6 7 7 8 8 8 7 7 7 8 8 9 10
10 9 8 8 7 7 6 6 6 7 7 6 5 4 4 4 4 4 4 4 4 4 4 4 4 4 3 3 3 3 3 3 3 4 4 4 4 4 4 4 4 4 3 4 4 4 4 4 4 4 4 4 3 4 4 3 3 3 3 3 3 3 3 4 4 5 5 5 6 6 6 6 6 7 8 9 9 8 8 8 8 8 9 10 10
8 8 7 7 7 7 7 7 7 7 6 5 4 4 4 4 4 4 4 4 4 4 4 4 4 4 4 3 3 3 3 3 3 4 4 4 4 4 4 4 4 4 4 4 4 4 4 4 4 4 4 4 4 4 3 3 3 4 4 4 3 4 4 4 5 5 5 6 6 7 6 6 7 8 9 9 9 9 9 9 9 9 10 11 11
8 7 7 7 7 7 8 7 7 6 5 4 4 4 4 4 4 4 4 4 4 4 4 4 4 4 4 4 4 3 3 3 4 4 4 4 4 4 4 4 4 4 4 4 4 4 4 4 4 4 4 4 4 4 4 4 4 4 4 4 4 4 4 5 5 6 6 7 7 7 7 7 8 8 9 10 9 10 10 9 10 11 12 12 12
8 7 7 7 7 8 8 7 6 5 4 4 4 4 4 4 4 5 5 5 5 5 5 5 4 4 4 4 4 4 4 4 4 4 4 4 4 4 4 4 4 4 4 4 4 4 4 4 4 4 4 4 4 4 4 4 4 4 4 4 4 4 5 5 6 6 7 7 7 7 7 7 8 9 10 10 10 10 11 10 10 12 14 13 12
8 7 8 8 8 8 7 6 5 4 4 4 4 4 4 5 5 5 5 5 6 5 5 5 5 5 4 4 4 4 4 4 4 4 5 4 4 4 4 4 4 4 4 5 5 4 4 4 4 4 5 5 4 4 4 4 4 5 4 4 5 5 5 6 7 7 8 8 8 8 7 8 9 9 10 10 10 11 11 10 11 13 15 14 13
8 8 8 8 8 7 6 5 4 4 4 4 4 4 5 5 5 5 5 5 5 5 5 5 5 5 5 5 5 5 4 4 4 5 5 5 5 5 4 4 5 5 5 5 5 5 5 4 5 5 5 5 5 5 5 5 5 5 5 5 5 6 6 7 7 8 9 8 8 8 8 8 9 9 10 10 10 11 12 11 12 14 15 15 13
9 9 8 8 7 5 5 4 4 4 4 5 5 5 5 5 5 5 5 5 5 5 5 5 5 5 5 5 5 5 5 4 4 5 5 5 5 5 5 5 5 5 5 5 5 5 5 5 5 5 5 5 5 5 5 6 6 6 6 6 6 6 7 7 8 9 9 9 9 8 8 9 10 10 11 12 12 13 13 12 13 15 16 15 14
9 8 7 6 5 5 4 4 4 4 5 5 5 5 5 5 5 5 5 5 5 5 5 5 5 5 5 5 5 5 5 5 5 5 5 5 5 5 5 5 5 5 6 6 6 6 5 5 5 5 5 5 5 6 6 6 6 7 7 7 7 7 8 8 8 9 9 9 9 9 9 10 11 12 12 13 13 14 14 13 14 15 16 16 15
9 7 6 5 5 5 4 4 4 5 5 5 5 5 4 4 4 4 4 5 5 5 5 5 5 5 5 5 5 5 5 5 5 5 5 6 6 6 5 5 6 6 6 6 6 6 6 6 5 5 6 6 6 6 7 7 7 8 8 8 8 8 8 9 9 9 10 10 10 10 10 11 12 13 13 14 14 14 14 14 15 15 16 16 16
7 6 6 5 5 5 4 4 5 5 5 5 5 5 5 4 4 5 5 5 5 5 5 5 5 5 5 5 5 5 5 5 5 5 5 6 6 6 6 6 6 6 6 6 6 6 6 6 6 6 6 6 7 7 7 8 8 8 8 9 9 9 9 9 10 10 10 11 10 10 11 11 12 13 15 15 15 15 15 16 16 16 16 16 17
7 6 5 5 5 5 5 5 5 5 5 5 5 5 5 5 5 5 5 5 5 5 5 5 5 5 5 5 5 5 4 4 5 5 5 5 6 6 6 6 6 6 6 6 6 7 7 6 6 6 6 6 7 7 8 8 9 9 10 10 10 10 10 10 10 10 10 11 11 11 12 12 13 14 16 17 17 17 17 17 17 17 17 17 17
Wind_Speed
60 49 42 43 44 45 46 46 47 48 50 52 52 52 52 53 54 55 56 58 59 60 63 64 66 67 69 70 71 72 73 74 75 77 78 79 80 80 81 82 83 83 83 84 86 87 88 89 89 91 92 92 93 93 93 92 91 90 90 89 90 90 91 92 92 92 92 93 95 96 97 97 96 94 92 90 88 86 84 85 88 94 101 107 111
55 44 42 45 45 46 47 47 48 50 51 52 52 53 54 55 57 59 60 62 64 65 66 68 69 70 71 73 74 76 76 77 78 79 80 82 84 85 85 86 87 88 88 89 90 91 93 94 95 96 97 97 97 97 97 97 95 94 94 93 93 92 93 94 94 94 93 94 95 95 96 96 95 93 92 90 88 85 83 84 87 92 98 105 110
51 43 45 47 46 47 47 48 50 52 53 54 54 55 56 58 60 62 64 66 68 69 70 71 72 74 75 76 78 79 80 81 81 82 82 84 86 88 89 91 92 93 94 94 95 96 97 99 100 100 101 101 101 101 101 100 99 98 97 96 96 95 95 96 95 95 94 95 94 95 96 96 95 93 91 91 88 84 83 84 86 90 95 102 108
49 46 48 47 47 48 48 50 52 54 55 56 57 58 59 62 63 65 67 69 71 72 74 75 76 78 78 79 81 82 84 85 85 85 85 86 87 89 91 93 95 97 98 99 100 101 102 103 104 104 104 104 104 103 103 103 103 101 100 100 99 98 97 97 96 96 95 95 94 94 95 94 94 93 91 90 88 85 83 83 84 87 93 100 106
50 49 49 48 49 49 50 52 54 56 58 59 60 62 63 65 67 69 70 72 74 76 78 79 80 82 83 84 85 86 87 89 89 89 89 89 90 91 93 95 98 100 102 104 105 105 106 107 107 108 108 107 106 105 105 105 105 104 103 102 101 100 99 98 97 96 96 95 94 94 94 93 94 93 92 90 87 85 83 82 83 85 91 97 103
53 51 50 50 51 52 53 55 57 59 60 62 64 66 68 69 71 73 75 77 78 80 82 83 85 86 88 89 89 90 91 92 93 93 93 94 94 95 96 98 100 103 105 107 109 110 110 111 111 111 110 109 108 107 107 107 107 106 105 104 103 102 100 99 98 97 95 94 94 93 92 92 92 92 92 90 87 85 82 80 81 83 88 96 101
55 54 53 53 53 55 57 59 60 62 63 66 68 69 72 73 75 77 80 82 83 84 86 87 89 91 92 93 93 94 94 95 95 96 96 96 97 98 100 102 105 107 109 111 113 114 115 115 114 113 112 112 111 109 108 108 108 107 106 105 104 103 101 99 98 97 95 93 92 91 91 91 91 91 91 89 88 85 82 79 79 82 86 94 100
55 56 56 57 57 59 61 62 64 66 68 70 72 74 76 78 79 81 83 85 87 89 90 92 93 95 96 97 97 98 97 97 98 98 99 100 101 102 103 105 107 110 113 115 117 118 119 118 117 115 114 113 112 109 108 108 107 106 106 105 104 103 102 100 98 97 94 92 91 90 90 90 90 90 90 89 87 85 83 79 78 80 85 92 99
56 57 58 60 61 63 65 66 68 70 72 74 76 78 80 82 84 85 87 88 90 92 94 96 97 99 100 101 101 101 100 100 100 101 103 104 105 107 108 109 110 112 115 117 120 121 122 121 119 117 115 113 111 109 107 106 106 105 104 104 103 102 101 100 98 97 95 92 91 90 89 90 89 89 89 88 86 85 83 80 78 78 83 91 98
57 59 60 62 64 67 68 70 72 74 76 78 80 81 83 86 87 89 91 92 94 95 97 99 100 102 103 104 104 103 103 103 104 105 107 109 111 112 114 114 114 115 116 118 120 122 122 121 119 117 115 112 110 108 106 105 104 103 102 102 101 101 101 99 97 96 95 92 91 89 88 88 88 88 88 87 85 83 83 81 78 77 81 89 96
59 61 63 65 67 69 71 73 75 77 79 81 83 85 87 89 91 92 94 96 98 100 101 103 104 104 104 104 105 105 106 107 108 110 113 114 115 117 118 119 119 119 119 120 122 122 121 119 117 116 114 112 109 107 105 104 103 102 101 100 99 100 100 98 96 94 94 92 90 88 87 87 87 87 87 85 83 82 81 81 79 77 80 87 94
60 63 65 67 69 71 73 74 76 79 81 83 86 88 90 92 94 96 98 100 103 104 105 106 107 107 106 105 106 107 109 111 113 115 117 119 120 121 123 123 124 123 123 122 122 122 119 116 114 112 111 110 109 107 105 104 103 102 100 99 98 98 98 97 94 92 91 90 89 87 86 85 85 86 85 84 82 81 79 79 80 78 79 85 92
64 66 68 70 71 73 75 77 80 82 84 86 89 92 94 96 98 100 103 105 107 108 109 109 109 110 109 109 109 110 112 114 117 119 121 122 124 125 127 127 127 126 124 122 120 118 115 112 111 109 108 108 107 106 105 104 102 101 100 98 96 96 96 95 92 90 88 88 87 86 85 84 84 84 83 82 81 80 78 78 79 78 79 84 90
68 71 72 74 76 78 80 82 84 86 88 90 93 95 97 99 102 104 106 108 110 111 111 111 111 112 113 114 115 116 117 118 120 122 124 126 128 129 129 129 127 124 121 118 115 113 111 110 109 108 107 107 106 105 104 102 101 99 97 95 94 94 94 93 90 88 86 86 85 85 83 83 83 83 81 80 79 78 77 77 78 78 79 83 89
73 75 77 79 81 83 85 87 88 90 92 94 96 99 101 103 105 107 109 110 111 111 111 112 113 115 117 119 121 122 123 123 124 126 127 128 128 128 127 125 122 119 117 115 113 112 111 109 108 107 106 106 105 104 102 100 98 95 93 91 89 90 90 90 88 85 84 83 83 83 82 81 81 81 80 78 77 77 76 75 76 78 79 83 88
78 80 81 83 86 88 90 92 93 95 97 99 101 103 105 107 109 110 111 110 110 111 112 113 115 117 120 124 126 127 128 128 129 130 129 128 126 123 119 116 115 114 114 114 114 113 111 109 107 106 104 103 102 101 100 98 94 92 89 86 84 84 85 86 84 83 82 81 81 80 80 79 80 80 78 77 75 74 74 74 75 77 79 82 86
82 84 85 88 90 92 94 96 98 100 102 104 106 108 110 111 112 112 112 112 112 113 115 117 119 120 123 126 129 131 132 132 132 131 129 127 124 120 116 113 112 113 113 113 113 112 110 107 104 102 100 99 99 98 96 94 92 88 86 83 80 79 80 81 81 81 80 79 78 78 78 78 78 78 77 75 73 73 72 72 74 76 78 81 85
85 87 89 92 94 96 99 101 103 105 107 109 111 112 113 113 113 113 114 115 116 118 119 122 123 125 126 128 131 132 133 132 130 128 126 123 121 120 117 114 113 113 112 111 111 110 109 106 103 100 97 95 94 93 91 89 88 86 83 81 77 75 76 77 78 78 78 77 76 76 76 76 76 76 74 73 71 71 71 71 72 75 77 80 84
89 91 94 97 99 101 103 105 107 109 112 113 114 115 115 115 115 116 117 119 120 122 124 126 128 130 131 131 131 131 130 128 125 122 120 118 116 116 116 114 112 110 109 107 106 106 106 105 103 101 97 94 91 89 86 84 84 83 81 79 76 75 75 76 75 76 76 75 74 74 74 74 74 73 72 71 69 69 70 69 71 74 76 79 82
93 96 99 101 104 106 107 109 111 113 115 116 116 116 116 116 118 119 121 123 125 127 128 130 132 133 133 132 130 128 126 122 119 116 115 113 112 112 112 110 107 105 103 102 101 100 100 100 100 100 97 93 89 86 83 80 80 80 79 77 75 75 75 75 74 73 74 73 72 72 72 72 72 71 70 69 68 68 68 68 70 73 75 78 81
97 100 102 105 107 109 111 113 115 115 116 116 116 117 118 119 122 124 126 128 130 131 132 132 133 134 133 131 128 124 121 118 115 113 111 110 108 106 105 104 101 100 99 98 98 98 97 97 97 97 95 92 88 84 81 78 77 78 77 75 74 74 75 75 73 72 72 72 71 71 70 70 70 69 68 67 66 67 67 67 69 72 74 77 80
101 104 106 109 111 112 114 115 115 116 116 117 119 121 122 124 126 129 130 132 133 133 133 133 133 132 130 127 123 120 117 115 113 111 109 106 103 100 99 98 98 97 97 98 99 99 97 97 96 95 93 90 87 83 79 77 75 75 74 73 72 73 73 73 72 71 71 70 69 69 69 69 68 67 66 66 65 65 65 66 68 70 73 76 78
106 109 111 113 114 114 115 115 116 118 119 121 123 125 127 129 131 132 132 133 134 134 133 132 130 127 124 122 119 116 115 113 111 108 106 102 100 97 96 96 97 97 97 98 99 98 97 96 95 93 90 87 84 81 78 75 73 73 71 70 70 71 71 71 70 70 70 68 68 68 68 68 66 65 65 64 64 64 64 65 67 69 72 75 77
111 112 113 114 115 115 116 118 119 122 124 126 128 130 131 132 133 133 133 133 133 132 130 127 125 122 119 118 116 115 113 111 108 105 102 99 97 95 94 93 95 95 96 96 97 95 94 93 91 90 87 84 80 77 75 73 71 69 67 67 67 68 68 68 69 69 68 67 66 66 67 66 65 64 64 63 64 64 63 64 66 68 71 73 75
113 114 114 115 116 118 120 122 124 126 128 130 131 132 133 133 134 134 133 131 129 127 124 122 120 118 116 115 114 112 110 107 104 102 100 98 96 93 91 91 92 92 92 93 93 90 89 88 87 85 84 81 77 74 72 70 68 66 65 64 64 64 64 65 67 67 67 66 65 65 66 65 64 63 63 63 63 63 63 63 64 67 69 72 75
114 115 116 118 120 122 124 126 128 129 131 132 132 133 133 133 132 131 129 126 124 122 120 119 117 116 114 112 110 108 106 103 101 99 98 97 95 92 89 88 89 89 88 89 88 85 83 82 81 80 79 77 73 71 69 68 66 64 62 61 61 61 61 63 64 65 65 65 64 65 65 64 62 62 62 62 62 62 62 62 63 65 68 71 74
117 119 120 122 124 126 128 129 130 132 133 133 133 132 131 129 127 126 124 122 120 119 118 116 115 114 112 109 107 104 102 100 99 98 97 95 94 90 86 85 86 85 85 85 83 80 78 77 76 75 74 72 70 68 66 65 63 61 60 59 58 58 59 60 61 62 63 63 64 64 64 62 60 60 61 61 60 61 61 62 63 64 66 70 73
121 123 125 126 128 129 130 131 132 133 133 132 131 129 127 125 124 122 121 119 118 117 115 114 113 111 109 106 104 101 99 98 97 96 95 94 92 89 84 82 82 82 81 81 78 76 74 72 72 71 69 68 67 65 64 61 60 58 57 57 56 56 57 58 59 60 61 62 63 63 62 60 59 58 59 60 60 60 61 61 62 63 66 69 72
125 127 128 130 131 132 132 132 132 131 129 127 126 125 124 123 121 120 119 117 116 114 113 112 110 107 105 103 101 99 97 96 95 94 93 91 89 86 82 79 78 77 77 76 74 72 70 69 68 68 66 66 65 63 61 58 57 56 55 55 55 55 55 56 57 59 60 61 61 61 60 59 58 57 58 60 60 60 61 61 61 63 66 68 70
129 130 132 133 133 132 131 130 129 127 125 124 122 121 121 120 119 117 116 114 113 111 109 108 106 104 102 101 99 97 96 95 94 93 91 89 87 84 80 76 74 73 73 72 70 69 67 65 65 65 64 63 62 61 59 56 54 53 53 53 53 53 54 54 56 57 58 59 59 59 58 57 56 57 58 59 60 60 60 59 60 62 65 68 69
132 132 132 132 130 129 127 126 125 124 123 121 118 117 117 116 115 114 113 111 109 108 106 105 104 102 100 99 97 96 95 93 92 90 88 86 84 81 77 74 72 70 70 69 67 65 64 62 63 63 62 61 60 58 56 53 52 52 52 52 52 52 53 53 54 56 56 56 57 57 56 55 55 57 58 58 59 59 58 58 60 62 65 66 67
131 130 129 127 126 125 124 123 122 120 119 118 116 115 114 113 112 111 109 108 107 105 104 103 102 101 98 97 95 94 93 91 90 88 85 82 80 77 73 71 70 69 67 65 64 62 61 60 60 59 59 58 56 54 52 51 50 50 50 50 51 52 52 52 53 53 54 54 54 55 54 54 55 56 57 58 58 57 56 58 60 62 64 65 66
128 126 124 123 122 122 121 120 119 118 117 116 114 113 112 110 109 108 107 106 105 104 103 102 101 99 97 94 93 92 90 89 87 84 81 79 77 73 70 68 67 66 64 62 61 60 59 58 57 56 55 54 52 50 49 49 49 49 50 50 50 50 50 51 51 51 51 51 51 52 52 53 54 56 57 56 56 55 56 58 60 62 64 64 64
124 123 122 122 121 121 120 119 118 116 115 113 112 110 109 107 106 105 104 104 103 102 101 99 98 97 94 92 90 88 87 86 84 81 78 75 73 69 67 66 64 63 61 59 58 58 57 55 54 53 52 51 48 47 47 48 48 49 49 49 49 48 48 49 48 48 48 49 49 50 51 52 54 55 56 55 53 53 55 58 60 62 63 63 62
123 122 121 120 119 118 116 115 114 113 112 111 109 108 107 106 105 104 103 102 101 99 97 95 93 91 90 88 86 84 82 81 80 77 75 73 69 65 64 63 62 60 58 57 56 56 54 53 51 49 49 47 46 45 46 48 48 48 47 48 47 46 46 46 46 46 46 47 47 48 50 52 53 55 54 53 52 52 55 58 61 62 62 61 61
121 119 118 116 115 114 112 111 110 109 109 108 107 107 106 105 104 102 100 99 97 95 92 90 88 86 85 83 81 79 77 76 74 73 72 70 66 63 61 60 59 57 56 55 54 53 52 50 48 47 46 44 43 44 45 47 47 46 46 46 46 45 43 44 45 45 45 46 46 48 49 51 53 53 52 51 51 52 55 58 61 62 61 60 60
117 115 114 113 112 111 110 108 107 106 106 106 105 104 103 101 99 97 95 93 92 90 88 86 83 81 80 78 76 74 72 71 70 69 69 67 64 62 60 58 56 55 54 54 53 51 49 48 45 44 43 42 42 43 44 45 45 44 45 45 45 44 42 42 44 44 45 45 46 47 49 50 51 51 50 49 50 52 54 58 60 61 60 59 58
113 112 111 111 110 110 108 107 105 104 103 102 101 99 97 95 93 91 90 88 87 86 84 82 80 78 76 75 73 71 69 68 68 67 66 65 63 60 58 56 55 53 52 52 50 48 46 45 43 41 41 41 41 41 43 44 43 43 43 44 43 43 42 41 42 43 44 44 46 47 48 50 50 49 48 48 50 52 54 58 60 60 59 57 57
112 111 110 109 108 108 108 107 105 103 100 98 96 94 92 91 89 87 86 85 84 83 81 79 78 76 75 73 71 69 67 66 65 64 64 63 61 59 57 55 54 52 50 49 48 46 44 43 41 39 39 40 40 40 41 42 41 41 42 43 42 42 41 40 41 42 43 44 45 47 48 49 49 47 47 48 49 51 54 57 58 58 57 56 56
110 110 109 108 108 107 107 106 104 102 98 95 93 91 90 89 87 85 83 82 81 80 79 77 76 75 74 72 70 67 65 63 62 62 61 60 58 57 56 54 53 51 49 48 46 44 42 41 39 38 38 39 39 40 40 40 39 39 41 42 41 41 40 39 40 42 43 44 45 47 47 47 47 46 46 47 49 51 54 56 57 57 56 55 56
108 108 108 107 107 106 105 104 102 100 98 95 93 91 90 88 87 85 83 81 79 78 77 75 74 73 72 70 68 65 63 61 60 59 59 58 56 55 54 53 52 50 47 46 44 42 41 39 38 37 37 38 39 39 39 39 38 38 39 40 40 39 38 38 40 42 43 44 45 46 46 46 45 45 46 47 48 51 54 55 56 55 54 54 56
108 107 106 106 105 103 102 101 99 98 96 94 92 90 88 87 86 84 82 79 78 76 75 73 72 71 69 68 66 63 60 58 57 57 56 55 54 53 52 51 51 49 46 44 43 41 40 38 37 37 37 38 38 38 38 38 37 37 38 39 39 38 37 38 39 41 43 44 44 45 46 45 44 45 46 47 49 51 53 54 53 53 52 54 56
106 105 104 103 102 101 99 98 96 95 94 92 90 88 86 84 82 81 79 77 76 74 73 71 70 69 67 65 64 61 59 56 55 54 54 53 52 52 50 49 49 47 44 42 41 40 39 38 37 37 37 38 38 37 37 37 36 36 37 38 37 36 37 38 39 41 42 43 44 45 45 44 44 45 46 48 49 51 52 53 52 51 52 54 56
104 103 102 100 99 98 97 96 94 93 92 90 87 84 83 81 79 77 76 75 73 72 71 70 68 67 65 64 62 60 57 54 52 52 52 51 50 50 49 47 47 45 42 41 40 39 38 37 36 36 36 37 37 37 36 35 35 35 36 37 36 36 36 38 39 41 42 43 44 45 44 43 44 45 47 48 49 50 52 52 50 50 52 54 55
102 101 100 99 97 96 95 94 93 92 90 88 85 83 81 79 77 75 74 73 71 70 69 68 67 66 64 63 61 59 56 53 50 49 50 49 48 48 47 46 45 43 41 40 39 38 38 37 36 36 36 37 37 36 35 34 33 34 35 36 36 36 37 38 39 40 42 43 43 43 43 44 45 46 47 48 49 49 51 51 49 48 51 53 55
100 99 98 97 96 95 94 93 92 91 89 87 85 82 80 78 76 74 73 72 71 69 68 67 66 64 63 61 59 57 55 52 48 46 47 47 46 46 46 44 43 42 40 39 38 37 37 36 35 35 36 36 36 35 34 33 33 34 35 35 36 36 37 38 39 40 41 42 43 43 44 45 45 46 47 47 47 48 49 49 48 47 50 53 55
98 97 97 96 95 94 93 92 90 89 87 85 83 81 79 77 75 73 72 71 70 68 66 65 64 63 61 59 57 56 54 52 48 45 45 45 44 44 44 43 42 41 39 38 37 36 36 35 35 35 35 36 35 34 33 32 32 33 34 35 36 37 37 38 39 40 41 42 43 43 44 44 45 45 45 46 46 47 49 49 47 47 49 52 54
96 96 95 95 94 93 92 90 88 86 85 83 82 80 78 76 74 73 71 70 70 68 66 64 63 62 60 58 56 55 54 51 48 45 44 43 43 43 43 42 41 40 39 38 37 36 35 35 34 35 35 35 34 34 33 32 32 33 34 35 35 36 37 38 39 40 41 42 42 43 44 45 45 45 45 46 47 48 48 48 47 46 48 51 54
94 94 94 94 93 91 89 87 85 84 82 82 80 79 78 76 74 72 71 69 68 68 66 64 63 62 60 58 56 54 53 51 48 45 43 42 42 43 43 41 41 40 38 38 37 36 35 34 34 34 34 34 34 34 33 32 32 33 34 34 35 36 37 38 39 40 41 42 43 44 45 45 45 45 45 46 47 47 47 47 46 47 48 51 53
93 93 93 93 91 89 87 85 83 82 81 81 80 79 78 76 74 72 70 68 67 66 66 64 63 62 60 59 57 55 53 51 48 45 43 41 40 42 42 41 40 39 38 37 37 36 35 34 34 34 34 35 34 34 34 33 33 33 34 34 35 36 37 39 40 41 42 43 44 45 46 46 45 45 45 46 46 47 46 46 47 48 48 50 52
92 92 91 90 89 87 85 83 82 81 80 80 79 78 76 75 73 71 68 66 65 64 64 63 62 61 60 58 56 55 53 52 49 45 43 41 39 40 41 41 39 39 38 37 36 36 35 34 34 34 35 35 35 34 34 34 34 33 34 34 35 37 38 40 41 42 43 44 45 45 46 46 45 45 45 46 46 46 46 47 48 48 49 50 51
Wind_Direction
293 295 292 289 291 291 291 292 292 293 293 293 293 293 293 294 294 294 294 293 292 291 291 291 291 291 292 291 291 290 290 290 290 290 291 292 292 293 294 294 295 295 296 296 297 297 298 297 297 297 296 295 294 293 291 289 286 284 281 279 277 275 273 271 269 267 267 266 265 265 264 263 262 262 260 258 256 252 249 246 243 241 239 238 236
292 293 290 291 292 292 293 294 293 293 293 293 293 294 294 294 294 294 294 293 293 292 293 293 293 293 292 292 291 291 291 291 291 292 292 293 294 295 295 296 296 297 297 297 298 298 298 297 297 296 296 295 294 293 291 289 287 284 282 280 277 275 273 272 269 268 267 266 265 265 264 264 263 262 261 259 256 252 249 247 245 242 240 238 236
290 293 291 292 293 294 295 294 294 294 293 294 294 294 294 294 294 293 293 293 294 294 295 295 294 293 292 292 292 292 292 292 292 293 293 294 294 295 296 296 297 297 298 298 298 297 297 297 296 296 295 294 293 292 291 289 287 285 282 280 277 275 274 272 270 269 268 267 266 265 265 264 264 263 261 260 257 253 250 248 247 244 241 238 236
291 293 292 293 294 294 294 294 294 294 294 295 295 296 295 295 294 294 294 295 296 296 296 295 294 294 293 293 293 293 293 293 293 293 293 294 294 294 295 296 296 297 297 297 297 297 297 296 296 295 294 293 292 291 290 288 287 284 282 280 277 275 274 272 271 269 268 267 266 266 265 265 264 263 262 260 258 255 251 248 248 246 242 239 237
293 293 293 294 295 295 294 293 293 294 295 297 297 297 296 296 296 296 297 297 297 296 296 296 295 295 295 295 294 294 294 294 294 294 295 295 294 294 295 295 295 296 296 297 297 297 296 296 295 295 294 293 291 290 289 288 286 284 282 280 278 276 274 272 271 270 269 268 267 266 265 265 264 264 263 261 259 256 252 249 247 247 244 240 237
294 294 295 295 295 295 294 294 294 296 297 298 298 298 298 298 298 298 298 297 297 296 296 296 296 296 296 295 295 295 295 295 295 295 295 295 295 295 295 295 295 296 296 297 297 297 296 296 295 294 293 292 291 290 288 287 285 283 281 279 278 276 274 273 272 270 269 268 267 267 266 265 264 264 263 262 260 257 253 249 248 246 244 240 237
295 296 297 296 296 295 295 295 297 298 299 298 298 298 299 299 299 298 298 298 298 297 297 297 296 296 296 295 295 295 295 295 295 295 295 295 295 295 295 296 296 297 297 297 297 297 296 295 294 293 292 291 290 288 287 285 283 281 280 279 277 276 275 274 272 271 270 269 268 267 266 265 264 264 263 262 260 258 253 250 248 246 244 241 237
295 297 297 297 297 297 297 298 299 300 299 299 299 299 299 299 298 298 298 298 298 298 298 298 297 297 296 296 296 296 296 295 295 295 295 295 296 296 296 296 297 297 298 298 297 297 296 295 294 292 291 290 288 286 285 283 282 280 279 278 277 276 275 274 273 272 271 269 268 267 266 265 265 264 263 262 261 259 255 250 247 246 244 241 237
296 297 297 298 298 298 300 300 300 300 300 299 299 299 299 299 299 299 299 299 298 298 298 298 298 298 298 297 297 297 297 297 297 296 297 297 297 297 297 297 297 297 297 297 297 297 296 295 293 292 290 288 286 285 283 282 280 279 278 278 277 276 275 274 273 272 271 270 269 267 266 265 264 263 263 261 260 259 257 252 246 244 243 241 238
297 297 298 298 299 300 301 301 300 300 299 299 299 299 299 299 299 299 299 299 299 298 298 298 298 298 298 298 297 298 298 298 298 298 298 298 298 299 299 299 298 298 298 297 297 296 295 294 293 291 289 287 286 284 283 281 280 279 278 277 277 276 275 274 273 273 272 271 269 268 266 265 264 263 262 261 260 258 258 255 248 243 242 240 237
296 297 298 298 299 299 299 299 299 298 298 298 298 299 299 299 299 299 299 299 299 299 299 299 298 298 297 297 298 298 299 299 299 299 299 299 299 299 300 299 299 299 298 297 296 295 294 293 291 290 289 287 286 284 283 282 280 279 278 277 276 276 275 274 273 272 272 271 269 268 266 265 263 262 262 261 260 258 256 256 251 244 240 239 237
295 296 297 297 297 297 297 297 297 296 297 297 298 298 298 299 299 299 300 300 300 300 300 299 299 298 298 298 298 299 299 299 299 299 299 300 300 301 301 300 300 299 298 297 296 294 293 291 290 289 287 286 285 284 283 282 280 279 278 277 277 276 275 274 273 272 271 270 269 267 266 264 263 262 261 260 259 258 256 255 252 246 239 237 236
296 296 297 296 296 297 297 297 296 297 297 298 299 299 299 300 300 300 300 300 300 300 300 300 299 299 299 299 299 299 299 299 299 300 301 301 301 301 301 300 299 298 297 296 294 293 291 290 289 287 286 285 284 283 282 281 280 279 278 277 277 276 275 274 273 272 271 270 268 267 265 264 262 261 260 259 258 257 255 254 252 247 240 236 234
299 298 298 298 298 298 298 298 298 298 299 299 299 299 299 299 300 300 300 300 300 300 300 300 299 299 300 300 300 300 300 301 301 302 302 302 301 301 300 299 298 297 296 295 293 292 290 289 287 286 285 284 283 282 281 280 279 278 278 277 276 275 275 274 273 272 270 269 267 266 264 263 262 261 260 259 258 257 255 253 250 246 241 236 233
300 299 299 300 300 299 299 299 299 300 300 299 299 299 299 299 299 300 300 299 299 299 299 299 300 300 300 301 302 302 302 302 303 302 302 301 300 300 299 298 297 296 296 294 293 291 290 288 287 286 285 284 283 282 281 280 280 279 278 277 275 274 274 273 272 271 269 267 266 265 264 262 261 260 259 258 257 256 254 252 249 245 241 236 233
300 300 300 301 300 300 300 300 300 300 300 299 299 299 300 300 300 300 300 299 299 299 299 300 300 301 301 302 302 303 303 303 303 302 301 301 300 298 298 297 297 296 295 294 293 291 289 288 286 285 284 283 283 282 282 281 281 280 279 277 275 273 272 271 270 269 267 266 265 264 263 262 261 260 259 258 257 255 253 250 247 244 240 236 234
300 300 300 300 299 300 300 300 300 300 300 300 300 300 300 300 300 300 300 300 300 300 301 301 301 302 302 302 302 302 302 302 302 302 302 301 300 300 299 298 297 296 295 293 292 290 288 287 285 284 283 283 282 282 282 282 282 281 280 278 275 273 271 269 268 267 266 265 264 263 262 261 260 259 259 257 256 254 251 248 245 242 238 236 234
299 299 299 299 299 300 300 300 300 301 301 301 300 301 301 301 301 301 301 301 301 301 301 302 302 302 302 301 301 301 302 302 302 302 301 301 301 300 299 298 297 296 295 293 292 291 290 288 287 286 284 283 283 283 282 283 282 281 280 278 276 273 270 268 266 265 265 264 263 262 261 260 259 258 258 257 255 252 249 246 243 240 237 235 234
300 300 300 300 300 300 301 301 301 301 301 300 301 301 301 301 301 301 301 301 301 302 302 302 302 302 302 302 302 302 302 302 301 301 301 300 299 299 298 297 296 295 294 292 291 290 289 289 288 287 287 286 285 284 284 283 282 281 279 277 275 272 270 267 265 264 264 263 262 261 260 259 258 258 257 255 253 251 248 244 241 238 236 235 234
301 301 300 300 300 300 300 300 300 300 300 300 301 301 301 301 301 301 301 302 302 302 302 302 302 302 302 302 302 302 302 301 301 300 299 299 298 297 297 296 295 293 292 290 288 287 287 287 288 288 288 288 287 286 285 283 281 280 278 276 274 271 269 267 265 263 262 262 261 260 259 258 257 257 256 254 252 249 247 243 240 237 235 235 234
300 300 299 299 299 300 300 300 300 300 300 300 301 301 301 301 301 302 302 302 302 302 302 302 302 303 303 303 303 302 301 301 300 299 299 298 297 296 295 295 294 293 292 291 289 288 288 288 288 288 289 289 289 288 286 284 281 278 277 275 273 270 268 266 264 262 261 261 260 259 258 257 256 255 254 253 250 248 245 242 239 236 235 234 234
300 299 299 300 300 300 300 300 301 301 301 301 301 302 302 302 302 302 302 302 303 303 303 303 303 303 303 303 302 302 301 300 300 300 299 298 297 297 296 295 295 295 294 293 292 291 290 290 289 289 289 289 289 288 286 283 280 277 275 273 271 269 266 265 263 262 260 259 259 258 257 256 255 254 253 251 249 247 244 240 238 236 235 234 234
300 300 300 300 300 301 301 301 301 301 302 302 302 302 302 302 302 302 303 303 303 303 303 303 303 303 302 302 302 301 301 301 300 300 300 299 298 298 297 297 297 296 295 293 292 291 291 290 289 289 289 289 288 287 285 282 279 276 274 272 270 267 266 264 263 261 259 258 257 256 255 255 254 253 252 250 248 245 242 239 237 236 236 235 234
300 300 301 301 302 302 302 302 302 302 302 302 302 302 302 303 303 303 303 304 304 303 303 303 303 302 302 302 302 302 301 301 301 301 300 300 299 298 298 298 297 295 294 292 291 290 290 289 289 288 288 288 287 285 283 281 278 276 274 271 268 267 265 263 261 260 258 257 256 255 254 253 253 252 250 248 247 244 241 238 236 236 236 236 234
301 302 302 302 303 303 302 302 302 302 302 302 303 303 303 304 304 304 304 304 303 303 303 303 303 302 302 302 302 302 302 302 302 301 301 300 299 298 298 297 295 294 292 290 289 289 289 288 287 287 287 287 286 284 282 280 278 276 273 270 268 266 264 261 259 258 257 256 255 253 252 252 251 250 249 247 245 244 241 238 236 235 236 236 235
302 303 302 302 302 302 302 302 302 302 303 303 303 304 304 304 304 304 304 303 303 303 303 303 303 302 302 302 302 302 302 302 302 301 301 300 299 298 298 297 295 293 291 289 288 288 288 287 286 286 286 285 284 282 280 279 277 275 272 270 268 265 263 260 258 257 256 254 253 252 251 250 249 249 248 246 244 243 241 238 236 235 235 235 235
302 302 302 302 302 302 303 303 303 304 304 304 304 304 304 304 304 304 303 303 304 303 303 303 303 303 302 302 302 302 302 302 302 301 300 300 299 298 297 296 294 293 291 289 289 288 288 287 286 285 284 284 283 281 279 278 276 274 272 269 267 264 262 259 257 255 254 253 252 251 250 249 248 247 246 245 243 242 240 238 236 235 234 234 234
302 302 303 303 304 304 304 304 305 305 305 305 305 305 305 304 304 304 304 304 304 304 303 303 303 303 303 303 303 303 303 302 302 301 300 300 299 298 297 296 294 293 291 290 290 289 289 288 286 285 284 283 282 281 279 277 276 274 272 269 267 264 261 258 256 254 252 251 250 250 249 249 247 245 244 244 242 240 239 238 236 235 234 233 233
304 304 305 305 305 305 305 305 305 305 305 305 305 305 305 304 304 304 304 304 304 304 303 303 303 303 303 303 303 303 303 302 302 301 300 299 299 298 297 296 294 293 292 291 291 290 289 288 287 286 285 283 282 281 279 278 276 274 271 268 265 262 259 256 254 252 251 250 249 249 248 247 246 244 242 242 240 239 238 237 236 235 234 233 232
305 306 305 305 305 305 305 305 305 305 305 305 305 305 304 304 304 304 304 304 304 304 303 303 303 303 303 303 303 303 303 302 301 300 300 299 298 297 297 296 294 293 292 292 291 290 289 288 287 285 284 283 282 281 280 278 276 273 270 267 264 261 258 255 253 251 250 249 248 248 247 246 244 243 241 239 239 238 237 237 236 235 234 233 232
306 305 305 305 305 305 305 305 305 305 305 305 305 304 304 304 304 304 304 304 304 304 304 304 304 303 303 304 303 303 302 301 300 300 299 299 298 298 298 297 295 294 293 292 291 290 289 287 286 284 283 282 281 280 279 278 275 272 268 265 262 259 256 254 251 250 249 248 247 247 246 245 243 241 239 238 238 238 237 236 236 235 234 233 232
305 305 305 305 305 305 305 305 305 305 305 305 305 305 305 305 305 305 305 305 305 304 304 304 304 304 304 304 303 302 301 300 299 299 299 299 298 298 298 297 295 294 292 292 291 289 288 286 284 283 282 281 280 280 279 276 273 270 266 263 260 258 255 253 251 250 248 247 246 246 245 243 241 240 239 237 237 237 236 235 235 235 234 233 231
305 306 306 306 306 306 306 306 306 306 306 306 306 306 306 306 305 306 306 305 305 305 305 305 304 304 303 303 302 301 300 299 299 299 299 299 298 298 297 296 294 293 292 291 290 289 288 285 283 281 280 280 279 278 276 273 270 267 264 262 260 258 256 254 252 250 248 246 245 244 243 241 240 239 238 237 236 236 235 235 235 234 233 232 231
306 307 307 307 307 307 307 307 307 307 307 307 307 307 307 306 306 306 306 306 305 305 304 304 303 303 302 301 300 300 299 299 299 299 299 298 298 298 296 295 293 292 292 291 290 288 287 284 282 281 279 279 278 277 274 271 268 265 263 262 260 258 257 255 252 250 247 245 243 242 241 240 239 238 238 237 235 234 234 235 235 234 233 232 230
307 308 308 307 307 307 307 307 307 307 307 307 307 307 307 307 307 306 306 305 304 304 303 302 302 301 301 300 300 299 299 299 299 299 299 298 298 297 296 294 293 293 293 291 289 287 285 283 282 280 279 278 277 275 271 268 266 264 263 262 261 259 257 255 253 249 246 244 242 240 239 238 237 237 237 236 235 233 233 234 234 234 233 231 230
307 307 307 307 307 307 307 307 308 308 307 307 307 307 307 306 306 305 305 304 303 303 302 302 301 300 300 300 300 300 300 299 299 298 298 298 298 297 295 294 294 293 292 290 288 286 284 282 281 279 278 277 276 273 270 267 265 263 262 261 260 258 256 254 252 249 246 243 241 239 238 237 237 237 236 235 234 233 233 234 234 234 232 231 229
307 307 307 308 308 308 308 308 308 308 308 307 307 306 306 305 305 304 304 303 303 302 302 302 302 301 301 300 300 300 300 300 299 299 299 299 298 297 295 294 294 293 291 289 287 285 283 281 280 279 278 277 275 272 269 266 264 263 261 260 259 257 254 252 251 249 246 243 241 239 238 237 237 236 235 234 233 233 233 234 235 234 233 231 229
307 307 308 308 308 308 308 308 308 308 308 307 307 306 306 306 305 305 305 304 304 304 304 303 303 303 302 302 302 301 301 301 301 300 300 299 298 297 296 294 293 292 290 287 286 284 283 281 280 279 278 277 274 270 267 265 263 262 260 259 258 256 253 250 249 248 245 243 241 239 238 238 237 236 234 233 233 233 233 234 235 235 233 232 230
308 309 309 309 309 309 309 309 309 309 308 308 308 308 307 307 307 307 307 306 306 306 306 306 306 305 304 304 304 303 303 302 302 301 299 298 298 296 295 294 293 291 289 287 285 284 283 281 280 279 278 276 272 269 266 264 262 260 259 258 256 255 252 249 247 246 244 242 241 240 239 238 237 236 234 233 233 233 233 234 235 235 234 233 231
310 310 311 311 311 310 310 310 310 311 311 311 310 310 310 310 310 310 309 309 308 308 308 307 307 306 305 305 304 304 304 303 301 300 299 298 297 296 295 294 292 290 288 286 285 284 282 281 279 278 277 274 270 267 264 263 261 260 258 257 255 253 251 248 246 245 243 242 240 240 239 238 238 236 235 234 233 232 233 233 234 234 234 234 233
312 312 312 311 311 311 311 311 312 312 313 313 313 313 313 312 312 312 311 311 310 309 309 308 307 306 305 305 304 304 303 302 301 300 298 297 296 295 294 293 291 290 288 286 285 284 282 281 280 278 277 273 269 266 264 262 261 259 258 256 254 252 249 246 244 243 242 241 240 240 239 238 237 236 235 234 233 232 233 233 234 234 234 234 234
313 313 313 312 312 312 312 313 313 313 314 314 314 314 314 313 313 312 312 311 310 309 309 308 306 306 305 305 304 303 303 302 301 300 298 297 296 294 293 292 290 289 287 286 285 284 282 281 279 278 276 273 269 265 263 262 260 258 257 256 253 250 247 245 243 242 241 240 240 240 239 237 237 236 235 234 233 233 233 233 233 233 233 234 234
313 313 313 313 313 313 313 314 314 314 314 314 314 314 314 313 312 312 311 310 310 309 308 307 306 305 305 304 304 303 303 302 301 300 298 297 295 294 292 291 289 288 287 286 285 284 282 280 279 277 275 272 269 266 263 261 260 258 256 255 252 249 245 243 241 241 240 239 239 239 238 237 236 235 235 234 233 233 234 234 233 232 232 233 234
314 314 314 314 314 314 314 314 315 315 315 314 314 314 313 312 312 311 310 310 310 309 308 308 307 306 305 305 304 304 303 303 302 300 297 296 294 292 291 290 289 288 287 286 285 283 281 280 278 277 274 272 268 265 262 261 259 257 256 254 252 247 244 241 240 239 239 238 238 238 237 236 236 235 234 234 233 234 234 234 232 231 232 233 234
315 315 315 315 315 315 315 315 315 315 315 315 315 314 314 313 312 312 311 310 310 309 309 308 307 306 306 305 304 304 303 302 301 299 296 295 294 291 290 290 288 288 287 285 284 282 281 279 277 275 273 270 267 264 261 259 258 256 255 253 250 246 242 240 238 238 238 238 238 237 237 236 235 234 234 234 234 234 235 235 233 231 231 233 234
316 316 316 316 316 316 316 316 316 316 316 315 315 315 314 314 313 312 312 311 310 310 309 308 307 306 305 304 303 303 302 302 301 299 296 295 293 291 290 289 288 287 287 285 283 282 280 278 276 274 271 269 266 263 260 258 256 255 254 251 248 245 242 239 238 238 238 237 237 236 236 236 235 235 235 236 236 236 236 236 233 230 230 232 234
316 316 316 317 317 317 317 317 316 316 316 315 315 315 314 314 313 313 312 311 310 309 309 308 307 306 305 304 303 302 302 302 302 300 297 295 294 292 291 290 288 287 286 285 283 281 279 277 275 273 270 268 265 262 258 256 255 254 253 250 247 244 241 239 237 237 237 237 236 236 236 236 236 236 236 236 236 236 236 236 233 230 229 232 234
317 317 317 317 318 318 317 317 316 316 315 315 315 314 314 314 313 313 312 312 311 310 309 308 307 306 305 304 303 303 302 302 302 300 298 296 294 292 291 289 288 287 286 285 283 281 279 276 274 272 270 267 264 260 257 255 254 252 251 250 247 244 241 238 237 237 236 236 236 236 236 235 235 235 235 235 236 236 236 236 234 230 229 230 233
318 318 318 318 318 318 317 317 317 316 316 316 315 315 315 315 314 314 313 313 312 311 310 310 309 307 306 305 304 303 302 302 302 301 298 297 294 292 290 289 287 286 285 283 282 281 279 276 274 271 269 266 263 259 256 254 252 251 250 248 246 243 241 238 236 236 235 235 235 235 235 234 234 234 234 235 236 236 236 236 235 232 229 230 232
319 319 319 319 318 318 318 318 317 317 317 317 317 316 316 316 315 315 314 314 313 312 311 311 310 309 307 306 305 304 303 302 302 300 298 296 293 291 289 288 286 285 284 282 281 280 279 276 274 271 268 264 261 259 256 253 251 249 248 247 245 242 240 237 235 234 234 234 234 234 234 234 234 234 234 235 236 236 236 236 235 233 231 231 232
320 320 319 319 319 319 319 319 319 319 318 318 317 317 316 316 316 315 315 314 313 312 311 310 310 309 308 307 305 304 303 302 301 300 297 295 292 289 287 286 285 284 283 281 280 279 278 277 274 270 267 264 261 258 255 252 249 248 247 246 244 241 238 236 235 234 233 233 233 234 234 234 234 235 234 234 235 235 235 235 235 234 233 233 233